Latham, NY

7:57 PM EST on December 10, 2016 (GMT -0500)
Albany International

Weather History for KALB - May, 2013

Change the Weather History Date:

Thursday, May 23, 2013

  Actual Average Record
Temperature  
Mean Temperature 71 °F 60 °F  
Max Temperature 75 °F 72 °F 93 °F (1964)
Min Temperature 66 °F 49 °F 36 °F (1967)
Degree Days  
Heating Degree Days 0 6  
Month to date heating degree days 135 196  
Since 1 July heating degree days 6197 6589  
Cooling Degree Days 6 1  
Month to date cooling degree days 24 12  
Year to date cooling degree days 24 16  
Growing Degree Days 20 (Base 50)    
Moisture  
Dew Point 64 °F    
Average Humidity 81    
Maximum Humidity 93    
Minimum Humidity 69    
Precipitation  
Precipitation 0.18 in 0.14 in 1.43 in (1983)
Month to date precipitation 3.68 2.60  
Year to date precipitation 11.77 13.77  
Snow  
Snow 0.00 in 0.00 in 0.00 in ()
Month to date snowfall 0.0 0.1  
Since 1 July snowfall 51.4 60.3  
Snow Depth 0.00 in    
Sea Level Pressure  
Sea Level Pressure 29.77 in    
Wind  
Wind Speed 10 mph (South)    
Max Wind Speed 18 mph    
Max Gust Speed 24 mph    
Visibility 10 miles    
Events Rain    
T = Trace of Precipitation, MM = Missing Value Source: NWS Daily Summary

Daily Weather History Graph

Daily Weather History Graph

Search for Another Location

Airport or City:

Trip Planner

Search our weather history database for the weather conditions in past years. The results will help you decide how hot, cold, wet, or windy it might be!

Date:

Astronomy

May. 23, 2013 Rise Set
Actual Time 5:25 AM EDT 8:19 PM EDT
Civil Twilight 4:51 AM EDT 8:52 PM EDT
Nautical Twilight 4:09 AM EDT 9:35 PM EDT
Astronomical Twilight 3:20 AM EDT 10:24 PM EDT
Moon 6:46 PM EDT (5/23) 4:10 AM EDT (5/23)
Length of Visible Light 16h 00m
Length of Day
14h 54m
Waxing Gibbous, 97% of the Moon is Illuminated
May 23
Waxing Gibbous
May 25
Full
May 31
Last Quarter
Jun 8
New
Jun 16
First Quarter

Hourly Weather History & Observations

Time (EDT) Temp. Dew Point Humidity Pressure Visibility Wind Dir Wind Speed Gust Speed Precip Events Conditions
12:51 AM 72.0 °F 66.9 °F 84% 29.79 in 7.0 mi SSE 12.7 mph - N/A   Mostly Cloudy
1:51 AM 69.1 °F 64.9 °F 87% 29.79 in 9.0 mi WSW 3.5 mph - N/A   Mostly Cloudy
2:51 AM 72.0 °F 63.0 °F 73% 29.77 in 10.0 mi SSE 10.4 mph - N/A   Mostly Cloudy
3:51 AM 69.1 °F 62.1 °F 78% 29.77 in 10.0 mi South 11.5 mph 16.1 mph N/A   Scattered Clouds
4:51 AM 68.0 °F 61.0 °F 78% 29.79 in 10.0 mi South 11.5 mph - N/A   Scattered Clouds
5:51 AM 66.9 °F 60.1 °F 79% 29.80 in 10.0 mi South 8.1 mph 17.3 mph N/A   Mostly Cloudy
6:51 AM 66.9 °F 61.0 °F 81% 29.81 in 10.0 mi South 12.7 mph 21.9 mph N/A   Mostly Cloudy
7:51 AM 68.0 °F 62.1 °F 81% 29.82 in 10.0 mi South 10.4 mph 18.4 mph N/A   Mostly Cloudy
8:51 AM 72.0 °F 63.0 °F 73% 29.82 in 10.0 mi South 11.5 mph - N/A   Mostly Cloudy
9:51 AM 72.0 °F 63.0 °F 73% 29.81 in 10.0 mi South 10.4 mph 16.1 mph N/A   Overcast
10:51 AM 71.1 °F 63.0 °F 75% 29.82 in 10.0 mi South 9.2 mph - 0.00 in   Overcast
11:51 AM 72.0 °F 64.0 °F 76% 29.82 in 10.0 mi South 10.4 mph - 0.00 in   Overcast
12:51 PM 72.0 °F 64.0 °F 76% 29.81 in 10.0 mi South 9.2 mph - N/A   Overcast
1:51 PM 75.0 °F 64.9 °F 71% 29.79 in 10.0 mi South 10.4 mph - N/A   Mostly Cloudy
2:51 PM 73.0 °F 64.9 °F 76% 29.78 in 10.0 mi SSE 10.4 mph - N/A   Overcast
3:51 PM 73.0 °F 64.9 °F 76% 29.76 in 10.0 mi South 15.0 mph 23.0 mph N/A   Overcast
4:51 PM 69.1 °F 66.9 °F 93% 29.76 in 8.0 mi South 11.5 mph - 0.07 in Rain Light Rain
5:51 PM 69.1 °F 66.0 °F 90% 29.75 in 10.0 mi SSE 12.7 mph 18.4 mph 0.03 in Rain Light Rain
6:09 PM 68.0 °F 66.2 °F 94% 29.75 in 10.0 mi South 13.8 mph 20.7 mph 0.00 in Rain Light Rain
6:51 PM 68.0 °F 64.9 °F 90% 29.75 in 10.0 mi South 11.5 mph 20.7 mph 0.00 in   Overcast
7:22 PM 68.0 °F 64.4 °F 88% 29.75 in 10.0 mi SSE 8.1 mph - N/A   Overcast
7:51 PM 68.0 °F 64.9 °F 90% 29.75 in 10.0 mi South 9.2 mph - N/A   Overcast
8:51 PM 68.0 °F 64.0 °F 87% 29.74 in 10.0 mi South 11.5 mph - N/A   Overcast
9:21 PM 66.2 °F 64.4 °F 94% 29.74 in 10.0 mi South 12.7 mph - N/A   Overcast
9:45 PM 66.2 °F 64.4 °F 94% 29.76 in 10.0 mi SSW 9.2 mph - N/A   Overcast
9:51 PM 66.9 °F 64.0 °F 90% 29.75 in 10.0 mi SSW 10.4 mph - N/A   Overcast
10:32 PM 66.2 °F 62.6 °F 88% 29.74 in 10.0 mi SSE 12.7 mph 17.3 mph N/A   Overcast
10:45 PM 66.2 °F 64.4 °F 94% 29.74 in 10.0 mi South 4.6 mph - N/A   Overcast
10:51 PM 66.9 °F 64.0 °F 90% 29.74 in 10.0 mi South 5.8 mph - N/A   Overcast
11:51 PM 66.0 °F 64.0 °F 93% 29.72 in 10.0 mi South 5.8 mph - 0.07 in   Overcast